Location: Dunedin
(45.8670°S, 170.5000°E)
Time: 02:01:05
(UTC+13:00)

MetOp-B - Pass Details

Date: 24 January 2019
Orbit: 820 x 821 km, 98.7° (Epoch: 15 February)

Event Time Altitude Azimuth Distance (km) Brightness Sun altitude
Rises 23:14:51 0° 163° (SSE) 3,395 7.9 -16.0°
Reaches altitude 10° 23:17:16 10° 160° (SSE) 2,455 7.0 -16.3°
Maximum altitude 23:22:39 62° 79° (ENE) 934 4.2 -16.9°
Enters shadow 23:25:59 23° 4° (N) 1,682 5.3 -17.2°
